Location: Albuquerque Trailhead
(34.7934°N, 106.3736°W)
Time: 02:14:13
(UTC+00:00)

Cosmos 1464 Rocket - Pass Details

Date: 20 June 2021
Orbit: 953 x 1001 km, 82.9° (Epoch: 27 July)

Event Time Altitude Azimuth Distance (km) Brightness Sun altitude
Rises 06:43:51 0° 347° (NNW) 3,722 8.2 -31.5°
Reaches altitude 10° 06:46:26 10° 343° (NNW) 2,772 7.2 -31.6°
Enters shadow 06:52:14 51° 280° (W) 1,245 4.5 -31.7°
